Regional Weather Roundup
Issued by NWS Sterling, VA

Home | Current Version | Previous Version | Graphics & Text | Print | Product List | Glossary On
Versions: 1 2 3 4 5 6 7 8 9 10 11 12 13 14 15 16 17 18 19 20 21 22 23 24 25 26 27 28 29 30 31 32 33 34 35 36 37 38 39 40 41 42 43 44 45 46 47 48 49 50
000
ASUS41 KLWX 211510
RWRLWX

REGIONAL WEATHER ROUNDUP
NATIONAL WEATHER SERVICE BALTIMORE MD/WASHINGTON DC
1100 AM EDT THU AUG 21 2014

Note: "FAIR" indicates few or no clouds below 12,000 feet
with no significant weather and/or obstructions to visibility.
 TC=TEMPERATURE CELSIUS

 * =Non NWS site. Station does not report precipitation (e.g. rain,
    snow, etc.), thunder, or fog.

DCZ001-MDZ009-015-VAZ040>042-051-053>054-211600-
WASHINGTON METRO
  /KDAA//-FT BELVOIR

CITY           SKY/WX    TMP DP  RH WIND       PRES   REMARKS
WASHINGTON NAT MOSUNNY   80  70  71 S5        30.06R
DULLES         PTSUNNY   75  70  84 CALM      30.07S
ANDREWS AFB    SUNNY     80  71  74 VRB3      30.06R
QUANTICO       MOSUNNY   77  70  79 VRB6      30.07R
COLLEGE PARK*  SUNNY     79  72  78 CALM      30.04S
LEESBURG*      SUNNY     79  73  83 CALM      30.07S HAZE
MANASSAS*      CLOUDY    73  72  94 CALM      30.07S
GAITHERSBURG*  SUNNY     79  70  73 CALM      30.10R

$$

MDZ006>007-011-014-211600-
BALTIMORE METRO

CITY           SKY/WX    TMP DP  RH WIND       PRES   REMARKS
BWI AIRPORT    MOSUNNY   79  70  74 W3        30.04S
MD SCIENCE CTR   N/A     80  69  69 MISG      30.04S
MARTIN STATE   PTSUNNY   81  73  78 CALM      30.06R
ANNAPOLIS      SUNNY     79  70  74 S5        30.04S
FORT MEADE*    MOSUNNY   77  70  78 W5        30.07S

$$

MDZ012-015-019>023-211600-
MARYLAND EASTERN SHORE

CITY           SKY/WX    TMP DP  RH WIND       PRES   REMARKS
OCEAN CITY     CLOUDY    76  70  82 SE8       30.06S
SALISBURY      PTSUNNY   82  72  69 CALM      30.04F
BAY BRIDGE AP*   N/A     77  70  78 W5        30.05R
CAMBRIDGE*     MOSUNNY   81  70  69 S3        30.04S
EASTON*        PTSUNNY   82  73  74 CALM      30.08S

$$

MDZ017>025-211600-
SOUTHERN MARYLAND

CITY           SKY/WX    TMP DP  RH WIND       PRES   REMARKS
PATUXENT RIVER MOSUNNY   82  71  69 CALM      30.03F
ST INIGOES     MOSUNNY   81  70  69 SW6       30.04S
LEONARDTOWN*   SUNNY     81  68  65 CALM      30.05F

$$

MDZ003>005-211600-
NORTH CENTRAL MARYLAND

CITY           SKY/WX    TMP DP  RH WIND       PRES   REMARKS
FREDERICK*     SUNNY     81  73  78 SW5       30.08S
HAGERSTOWN APT CLOUDY    73  68  84 S6        30.07S
WESTMINSTER*   SUNNY     77  73  88 CALM      30.06F

$$

MDZ501>502-211600-
WESTERN MARYLAND

CITY           SKY/WX    TMP DP  RH WIND       PRES   REMARKS
OAKLAND*       CLOUDY    68 N/A N/A SW9       30.18S HAZE
CUMBERLAND*    SUNNY     86  70  58 CALM      30.10F HX  90

$$

VAZ025>031-211600-
SHENANDOAH VALLEY

CITY           SKY/WX    TMP DP  RH WIND       PRES   REMARKS
WINCHESTER*    MOSUNNY   81  70  69 S3        30.07S
STAUNTON*      SUNNY     81  65  58 CALM      30.11F

$$

WVZ021-048>050-054>055-211600-
EASTERN WEST VIRGINIA PANHANDLE

CITY           SKY/WX    TMP DP  RH WIND       PRES   REMARKS
MARTINSBURG    SUNNY     77  67  71 CALM      30.07S
PETERSBURG*    NOT AVBL

$$

VAZ036>039-050-211600-
CENTRAL FOOTHILLS

CITY           SKY/WX    TMP DP  RH WIND       PRES   REMARKS
CHARLOTTESVILL SUNNY     77  71  82 VRB3      30.08F
ORANGE*        SUNNY     79  72  78 SW3       30.09S

$$

VAZ055>057-211600-
NORTH AND CENTRAL PIEDMONT

CITY           SKY/WX    TMP DP  RH WIND       PRES   REMARKS
FREDERICKSBRG* SUNNY     81  74  79 CALM      30.05S
STAFFORD*      MOSUNNY   76  76 100 NW5       30.10S

$$

NCZ024-NYZ072-PAZ021-071-VAZ022-071-211600-
OTHER REGIONAL OBSERVATIONS

CITY           SKY/WX    TMP DP  RH WIND       PRES   REMARKS
NEW YORK CITY  MOSUNNY   77  62  59 VRB3      30.08F
PHILADELPHIA   PTSUNNY   78  66  66 S5        30.06S
PITTSBURGH     CLOUDY    74  67  78 SW8       30.07R
ROANOKE        MOSUNNY   79  65  62 SE3       30.14S
RICHMOND       SUNNY     85  71  63 VRB6      30.06S HX  90
RALEIGH        PTSUNNY   84  71  65 N6        30.09R

$$

ANZ530>537-211600-
MARINE OBSERVATIONS

STATION/POSITION TIME  TEMP    WIND        PRES
                       AIR SEA DIR/SP/G
                 (UTC) (F)     (DEG/KT/KT) (MB)
THOMAS PT LIGHT  1500   76 78  140/  1/  2 1017.9R
BALT KEY BRIDGE  1500   76     150/  3/  4 1017.2S
COVE POINT       1500   77      60/  5/  5 1017.2S
LEWISETTA        1500   79 78   10/  5/  7 1017.1R
SOLOMONS ISLAND  1500      80                N/A
PINEY POINT      1500          310/  5/  6   N/A

$$




USA.gov is the U.S. government's official web portal to all federal, state and local government web resources and services.